YAOGAN-41

Last updated on Mon Oct 14 2024 00:02:42 GMT+0000 (Coordinated Universal Time)

1 58582U 23197A 24287.50255566 -.00000370 00000+0 00000+0 0 9996 2 58582 4.3536 307.9039 0014922 194.4584 184.3228 1.00270327 3198
UTC large
Height (km)
Speed (km/s)
/
Latitude / Longitude
Inclination (degrees)
Orbital Period (minutes)
Azimuth
Elevation
Range (km)
Doppler Factor

Next 0 passes for location: London (51.5072 / 0.1276)

Sorry there are no passes over London.